Kendall, FL

10:23 AM EDT on June 29, 2017 (GMT -0400)
Kendall-Tamiami Executive

Weather History for KTMB - May, 2014

Change the Weather History Date:

Friday, May 16, 2014

  Actual Average Record
Temperature  
Mean Temperature 76 °F -  
Max Temperature 82 °F 87 °F 91 °F (2001)
Min Temperature 72 °F 65 °F 63 °F (2001)
Cooling Degree Days 12    
Growing Degree Days 26 (Base 50)    
Moisture  
Dew Point 67 °F    
Average Humidity 75    
Maximum Humidity 94    
Minimum Humidity 32    
Precipitation  
Precipitation 0.00 in - - ()
Sea Level Pressure  
Sea Level Pressure 30.01 in    
Wind  
Wind Speed 9 mph (NNW)    
Max Wind Speed 16 mph    
Max Gust Speed 25 mph    
Visibility 10 miles    
Events Rain    
Averages and records for this station are not official NWS values.
T = Trace of Precipitation, MM = Missing Value Source: NWS Daily Summary

Daily Weather History Graph

Daily Weather History Graph

Search for Another Location

Airport or City:

Trip Planner

Search our weather history database for the weather conditions in past years. The results will help you decide how hot, cold, wet, or windy it might be!

Date:

Astronomy

May. 16, 2014 Rise Set
Actual Time 6:35 AM EDT 8:00 PM EDT
Civil Twilight 6:10 AM EDT 8:25 PM EDT
Nautical Twilight 5:41 AM EDT 8:55 PM EDT
Astronomical Twilight 5:10 AM EDT 9:26 PM EDT
Moon 10:06 PM EDT (5/16) 8:16 AM EDT (5/16)
Length of Visible Light 14h 14m
Length of Day
13h 24m
Waning Gibbous, 95% of the Moon is Illuminated
May 16
Waning Gibbous
May 21
Last Quarter
May 28
New
Jun 5
First Quarter
Jun 13
Full

Hourly Weather History & Observations

Time (EDT) Temp. Heat Index Dew Point Humidity Pressure Visibility Wind Dir Wind Speed Gust Speed Precip Events Conditions
12:53 AM 77.0 °F - 73.0 °F 88% 30.00 in 10.0 mi SSW 5.8 mph - N/A   Clear
1:53 AM 75.9 °F - 73.0 °F 91% 29.97 in 10.0 mi South 6.9 mph - N/A   Clear
2:53 AM 75.9 °F - 72.0 °F 87% 29.96 in 10.0 mi SSW 8.1 mph - N/A   Clear
3:53 AM 75.9 °F - 73.0 °F 91% 29.96 in 10.0 mi WSW 3.5 mph - N/A   Partly Cloudy
4:14 AM 75.0 °F - 73.0 °F 94% 29.97 in 10.0 mi West 6.9 mph - N/A   Overcast
4:46 AM 75.9 °F - 73.0 °F 91% 29.97 in 10.0 mi SW 4.6 mph - N/A   Overcast
4:53 AM 75.9 °F - 73.0 °F 91% 29.97 in 10.0 mi SW 5.8 mph - N/A   Overcast
5:30 AM 75.9 °F - 73.0 °F 91% 29.97 in 10.0 mi West 4.6 mph - 0.00 in   Overcast
5:53 AM 75.9 °F - 73.0 °F 91% 29.98 in 5.0 mi West 5.8 mph - 0.00 in Rain Light Rain
6:17 AM 75.0 °F - 72.0 °F 90% 29.98 in 10.0 mi NNW 11.5 mph - 0.00 in Rain Light Rain
6:48 AM 73.4 °F - 71.6 °F 94% 29.99 in 10.0 mi NNW 10.4 mph - 0.00 in Rain Light Rain
6:53 AM 73.9 °F - 71.1 °F 91% 29.99 in 10.0 mi NNW 8.1 mph - 0.00 in Rain Light Rain
7:53 AM 73.9 °F - 70.0 °F 87% 30.01 in 9.0 mi North 10.4 mph - 0.00 in Rain Light Rain
8:44 AM 73.9 °F - 70.0 °F 87% 30.02 in 10.0 mi NNW 9.2 mph - 0.00 in   Overcast
8:53 AM 73.9 °F - 70.0 °F 87% 30.02 in 10.0 mi North 12.7 mph - 0.00 in   Overcast
9:16 AM 75.0 °F - 70.0 °F 84% 30.02 in 10.0 mi NNW 10.4 mph - N/A   Overcast
9:53 AM 75.9 °F - 68.0 °F 76% 30.02 in 10.0 mi North 11.5 mph - N/A   Overcast
10:53 AM 78.1 °F - 68.0 °F 71% 30.03 in 10.0 mi NNW 13.8 mph - N/A   Overcast
11:53 AM 79.0 °F - 68.0 °F 69% 30.04 in 10.0 mi North 13.8 mph - N/A   Overcast
12:53 PM 81.0 °F 83.8 °F 68.0 °F 65% 30.03 in 10.0 mi NNW 16.1 mph - N/A   Mostly Cloudy
1:04 PM 81.0 °F 83.8 °F 68.0 °F 65% 30.03 in 10.0 mi North 13.8 mph - N/A   Mostly Cloudy
1:53 PM 78.1 °F - 66.9 °F 68% 30.03 in 10.0 mi North 16.1 mph 25.3 mph N/A   Overcast
2:53 PM 80.1 °F 82.7 °F 68.0 °F 67% 30.02 in 10.0 mi NNW 15.0 mph 23.0 mph N/A   Overcast
3:18 PM 80.1 °F 82.3 °F 66.9 °F 64% 30.02 in 10.0 mi North 16.1 mph - N/A   Scattered Clouds
3:53 PM 80.6 °F 82.7 °F 66.2 °F 61% 30.01 in 10.0 mi North 11.5 mph - N/A   Partly Cloudy
4:53 PM 79.0 °F - 66.0 °F 64% 30.01 in 10.0 mi North 16.1 mph - N/A   Clear
5:53 PM 77.0 °F - 64.9 °F 66% 30.00 in 10.0 mi North 12.7 mph - N/A   Clear
6:53 PM 75.9 °F - 64.9 °F 69% 30.01 in 10.0 mi North 10.4 mph - N/A   Clear
7:53 PM 75.9 °F - 60.1 °F 58% 30.02 in 10.0 mi NNE 11.5 mph - N/A   Clear
8:53 PM 75.0 °F - 43.0 °F 32% 30.06 in 10.0 mi NNE 10.4 mph - N/A   Clear
9:53 PM 73.0 °F - 51.1 °F 46% 30.07 in 10.0 mi NNE 10.4 mph - N/A   Clear
10:53 PM 72.0 °F - 54.0 °F 53% 30.08 in 10.0 mi NNE 10.4 mph - N/A   Overcast
11:53 PM 72.0 °F - 53.1 °F 51% 30.07 in 10.0 mi NNE 9.2 mph - N/A   Clear